Location: Haut Kerinec
(48.0623°N, 4.4081°W)
Time: 19:16:14
(UTC+00:00)

Cosmos 1943 Rocket - Pass Details

Date: 01 June 2020
Orbit: 810 x 845 km, 71.0° (Epoch: 02 July)

Event Time Altitude Azimuth Distance (km) Brightness Sun altitude
Exits shadow 21:31:44 - 173° (S) 2,488 4.1 -10.7°
Reaches altitude 10° 21:31:57 10° 172° (S) 2,408 4.1 -10.7°
Maximum altitude 21:36:59 37° 107° (ESE) 1,258 2.7 -11.3°
Drops below altitude 10° 21:42:05 10° 41° (NE) 2,445 4.8 -11.8°
Sets 21:44:41 0° 34° (NE) 3,389 5.6 -12.0°
